Kiana, AK

2:02 AM AKDT on October 23, 2017 (GMT -0800)
Baker Memorial

Weather History for PAIK - October, 2012

Change the Weather History Date:

Tuesday, October 9, 2012

  Actual Average (PASK) Record (PASK)
Temperature  
Mean Temperature 30 °F -  
Max Temperature 24 °F 29 °F 46 °F (2006)
Min Temperature 25 °F 21 °F 8 °F (1996)
Degree Days  
Heating Degree Days 34    
Moisture  
Dew Point 18 °F    
Average Humidity 65    
Maximum Humidity 75    
Minimum Humidity 48    
Precipitation  
Precipitation 0.00 in - - ()
Sea Level Pressure  
Sea Level Pressure 30.73 in    
Wind  
Wind Speed 7 mph (NNE)    
Max Wind Speed 13 mph    
Max Gust Speed -    
Visibility 10 miles    
Events      
Averages and records for this station are not official NWS values.
T = Trace of Precipitation, MM = Missing Value Source: NWS Daily Summary

Daily Weather History Graph

Daily Weather History Graph

Search for Another Location

Airport or City:

Trip Planner

Search our weather history database for the weather conditions in past years. The results will help you decide how hot, cold, wet, or windy it might be!

Date:

Astronomy

Oct. 09, 2012 Rise Set
Actual Time 9:23 AM AKDT 7:32 PM AKDT
Civil Twilight 8:29 AM AKDT 8:26 PM AKDT
Nautical Twilight 7:27 AM AKDT 9:27 PM AKDT
Astronomical Twilight 6:22 AM AKDT 10:32 PM AKDT
Moon 12:35 AM AKDT (10/9) 6:19 PM AKDT (10/9)
Length of Visible Light 11h 56m
Length of Day
10h 09m
Waning Crescent, 35% of the Moon is Illuminated
Oct 9
Waning Crescent
Oct 15
New
Oct 21
First Quarter
Oct 29
Full
Nov 6
Last Quarter

Hourly Weather History & Observations

Time (AKDT) Temp. Windchill Dew Point Humidity Pressure Visibility Wind Dir Wind Speed Gust Speed Precip Events Conditions
12:01 AM 26.1 °F 19.4 °F 18.0 °F 71% 30.71 in 10.0 mi NNW 5.8 mph - N/A   Clear
1:01 AM 27.0 °F 19.5 °F 18.0 °F 69% 30.71 in 10.0 mi North 6.9 mph - N/A   Clear
2:01 AM 27.0 °F 18.7 °F 18.0 °F 69% 30.71 in 10.0 mi North 8.1 mph - N/A   Clear
3:01 AM 27.0 °F 19.5 °F 18.0 °F 69% 30.71 in 10.0 mi North 6.9 mph - N/A   Clear
4:01 AM 26.1 °F 16.8 °F 18.0 °F 71% 30.72 in 10.0 mi North 9.2 mph - N/A   Clear
5:01 AM 27.0 °F 19.5 °F 18.0 °F 69% 30.72 in 10.0 mi North 6.9 mph - N/A   Clear
6:01 AM 26.1 °F 19.4 °F 18.0 °F 71% 30.72 in 10.0 mi North 5.8 mph - N/A   Clear
7:01 AM 26.1 °F 19.4 °F 17.1 °F 69% 30.73 in 10.0 mi North 5.8 mph - N/A   Clear
8:01 AM 26.1 °F 17.6 °F 17.1 °F 69% 30.73 in 10.0 mi North 8.1 mph - N/A   Clear
9:01 AM 25.0 °F 17.1 °F 17.1 °F 72% 30.74 in 10.0 mi North 6.9 mph - N/A   Clear
10:01 AM 26.1 °F 20.5 °F 18.0 °F 71% 30.74 in 10.0 mi NNE 4.6 mph - N/A   Clear
11:01 AM 27.0 °F 18.7 °F 19.0 °F 72% 30.75 in 10.0 mi North 8.1 mph - N/A   Clear
12:01 PM 28.9 °F 21.9 °F 19.0 °F 67% 30.75 in 10.0 mi North 6.9 mph - N/A   Clear
1:01 PM 32.0 °F 25.6 °F 19.0 °F 59% 30.75 in 10.0 mi North 6.9 mph - N/A   Clear
2:01 PM 33.1 °F 27.7 °F 17.1 °F 52% 30.74 in 10.0 mi NNE 5.8 mph - N/A   Clear
3:01 PM 35.1 °F 29.3 °F 18.0 °F 50% 30.74 in 10.0 mi NNE 6.9 mph - N/A   Clear
4:01 PM 36.0 °F 28.5 °F 18.0 °F 48% 30.73 in 10.0 mi NNE 10.4 mph - N/A   Clear
5:01 PM 36.0 °F 27.5 °F 18.0 °F 48% 30.72 in 10.0 mi NE 12.7 mph - N/A   Clear
6:01 PM 34.0 °F 25.5 °F 19.0 °F 54% 30.72 in 10.0 mi NE 11.5 mph - N/A   Clear
7:01 PM 32.0 °F 25.6 °F 19.0 °F 59% 30.72 in 10.0 mi NNE 6.9 mph - N/A   Clear
8:01 PM 30.9 °F 22.8 °F 19.9 °F 64% 30.72 in 10.0 mi NE 9.2 mph - N/A   Clear
9:01 PM 28.9 °F 22.8 °F 19.0 °F 67% 30.72 in 10.0 mi NNE 5.8 mph - N/A   Clear
10:01 PM 28.9 °F 23.9 °F 19.9 °F 69% 30.72 in 10.0 mi North 4.6 mph - N/A   Clear
11:01 PM 26.1 °F 17.6 °F 19.0 °F 75% 30.71 in 10.0 mi North 8.1 mph - N/A   Clear